Time,TemperatureF,DewpointF,PressureIn,WindDirection,WindDirectionDegrees,WindSpeedMPH,WindSpeedGustMPH,Humidity,HourlyPrecipIn,Conditions,Clouds,dailyrainin,SoftwareType,DateUTC
2013-04-24 00:01:00,59.0,-99.9,30.16,North,-999,-999.0,-999.0,-999,-99.99,,,-99.99,,2013-04-24 04:01:00,
2013-04-24 00:12:00,59.0,-99.9,30.15,ESE,109,1.0,2.0,-999,-99.99,,,-99.99,,2013-04-24 04:12:00,
2013-04-24 00:23:00,59.0,-99.9,30.15,ESE,118,1.0,2.0,-999,-99.99,,,-99.99,,2013-04-24 04:23:00,
2013-04-24 00:33:00,59.0,-99.9,30.15,ESE,108,2.0,2.0,-999,-99.99,,,-99.99,,2013-04-24 04:33:00,
2013-04-24 00:43:00,59.0,-99.9,30.15,ESE,122,2.0,3.0,-999,-99.99,,,-99.99,,2013-04-24 04:43:00,
2013-04-24 00:53:00,59.0,-99.9,30.14,ESE,110,3.0,4.0,-999,-99.99,,,-99.99,,2013-04-24 04:53:00,
2013-04-24 01:02:00,59.0,-99.9,30.15,ESE,112,3.0,4.0,-999,-99.99,,,-99.99,,2013-04-24 05:02:00,
2013-04-24 01:13:00,59.0,-99.9,30.15,ESE,107,4.0,4.0,-999,-99.99,,,-99.99,,2013-04-24 05:13:00,
2013-04-24 01:22:00,59.0,-99.9,30.14,ESE,106,3.0,4.0,-999,-99.99,,,-99.99,,2013-04-24 05:22:00,
2013-04-24 01:32:00,59.0,-99.9,30.14,ESE,115,3.0,3.0,-999,-99.99,,,-99.99,,2013-04-24 05:32:00,
2013-04-24 01:42:00,59.0,-99.9,30.14,ESE,107,2.0,2.0,-999,-99.99,,,-99.99,,2013-04-24 05:42:00,
2013-04-24 01:52:00,58.0,-99.9,30.14,North,349,1.0,1.0,-999,-99.99,,,-99.99,,2013-04-24 05:52:00,
2013-04-24 02:02:00,58.0,-99.9,30.14,North,352,1.0,1.0,-999,-99.99,,,-99.99,,2013-04-24 06:02:00,
2013-04-24 02:12:00,58.0,-99.9,30.13,ENE,59,1.0,2.0,-999,-99.99,,,-99.99,,2013-04-24 06:12:00,
2013-04-24 02:22:00,57.0,-99.9,30.13,North,-999,-999.0,-999.0,-999,-99.99,,,-99.99,,2013-04-24 06:22:00,
2013-04-24 02:33:00,56.0,-99.9,30.12,North,-999,-999.0,-999.0,-999,-99.99,,,-99.99,,2013-04-24 06:33:00,
2013-04-24 02:42:00,56.0,-99.9,30.12,West,280,-999.0,4.0,-999,-99.99,,,-99.99,,2013-04-24 06:42:00,
2013-04-24 02:52:00,55.0,-99.9,30.12,WNW,286,4.0,4.0,-999,-99.99,,,-99.99,,2013-04-24 06:52:00,
2013-04-24 03:02:00,56.0,-99.9,30.12,WNW,293,5.0,6.0,-999,-99.99,,,-99.99,,2013-04-24 07:02:00,
2013-04-24 03:11:00,55.0,-99.9,30.12,WNW,292,5.0,6.0,-999,-99.99,,,-99.99,,2013-04-24 07:11:00,
2013-04-24 03:22:00,55.0,-99.9,30.12,WNW,290,5.0,6.0,-999,-99.99,,,-99.99,,2013-04-24 07:22:00,
2013-04-24 03:32:00,55.0,-99.9,30.12,WNW,296,6.0,7.0,-999,-99.99,,,-99.99,,2013-04-24 07:32:00,
2013-04-24 03:42:00,55.0,-99.9,30.12,WNW,298,6.0,7.0,-999,-99.99,,,-99.99,,2013-04-24 07:42:00,
2013-04-24 03:52:00,55.0,-99.9,30.12,WNW,301,6.0,7.0,-999,-99.99,,,-99.99,,2013-04-24 07:52:00,
2013-04-24 04:02:00,55.0,-99.9,30.12,WNW,298,4.0,6.0,-999,-99.99,,,-99.99,,2013-04-24 08:02:00,
2013-04-24 04:12:00,55.0,-99.9,30.12,NW,305,5.0,6.0,-999,-99.99,,,-99.99,,2013-04-24 08:12:00,
2013-04-24 04:22:00,55.0,-99.9,30.13,WNW,302,5.0,6.0,-999,-99.99,,,-99.99,,2013-04-24 08:22:00,
2013-04-24 04:33:00,54.0,-99.9,30.13,NW,318,4.0,5.0,-999,-99.99,,,-99.99,,2013-04-24 08:33:00,
2013-04-24 04:42:00,54.0,-99.9,30.13,NW,314,4.0,4.0,-999,-99.99,,,-99.99,,2013-04-24 08:42:00,
2013-04-24 04:52:00,54.0,-99.9,30.13,NW,314,4.0,5.0,-999,-99.99,,,-99.99,,2013-04-24 08:52:00,
2013-04-24 05:02:00,54.0,-99.9,30.13,NW,315,4.0,4.0,-999,-99.99,,,-99.99,,2013-04-24 09:02:00,
2013-04-24 05:12:00,55.0,-99.9,30.13,WNW,302,4.0,5.0,-999,-99.99,,,-99.99,,2013-04-24 09:12:00,
2013-04-24 05:22:00,55.0,-99.9,30.13,NW,305,4.0,4.0,-999,-99.99,,,-99.99,,2013-04-24 09:22:00,
2013-04-24 05:33:00,55.0,-99.9,30.13,NW,310,3.0,4.0,-999,-99.99,,,-99.99,,2013-04-24 09:33:00,
2013-04-24 05:42:00,55.0,-99.9,30.13,NW,312,2.0,2.0,-999,-99.99,,,-99.99,,2013-04-24 09:42:00,
2013-04-24 05:53:00,55.0,-99.9,30.14,NW,305,4.0,5.0,-999,-99.99,,,-99.99,,2013-04-24 09:53:00,
2013-04-24 06:02:00,54.0,-99.9,30.14,WNW,299,4.0,5.0,-999,-99.99,,,-99.99,,2013-04-24 10:02:00,
2013-04-24 06:13:00,54.0,-99.9,30.14,WNW,300,5.0,6.0,-999,-99.99,,,-99.99,,2013-04-24 10:13:00,
2013-04-24 06:23:00,55.0,-99.9,30.14,WNW,295,4.0,5.0,-999,-99.99,,,-99.99,,2013-04-24 10:23:00,
2013-04-24 06:33:00,55.0,-99.9,30.15,WNW,293,4.0,4.0,-999,-99.99,,,-99.99,,2013-04-24 10:33:00,
2013-04-24 06:42:00,54.0,-99.9,30.16,WNW,289,3.0,4.0,-999,-99.99,,,-99.99,,2013-04-24 10:42:00,
2013-04-24 06:53:00,54.0,-99.9,30.16,WNW,296,3.0,3.0,-999,-99.99,,,-99.99,,2013-04-24 10:53:00,
2013-04-24 07:03:00,54.0,-99.9,30.16,WNW,296,2.0,2.0,-999,-99.99,,,-99.99,,2013-04-24 11:03:00,
2013-04-24 07:12:00,55.0,-99.9,30.16,NW,314,-999.0,0.0,-999,-99.99,,,-99.99,,2013-04-24 11:12:00,
2013-04-24 07:22:00,55.0,-99.9,30.16,North,351,-999.0,0.0,-999,-99.99,,,-99.99,,2013-04-24 11:22:00,
2013-04-24 07:32:00,55.0,-99.9,30.16,NNE,33,2.0,2.0,-999,-99.99,,,-99.99,,2013-04-24 11:32:00,
2013-04-24 07:43:00,57.0,-99.9,30.16,NE,45,0.0,2.0,-999,-99.99,,,-99.99,,2013-04-24 11:43:00,
2013-04-24 07:53:00,56.0,-99.9,30.16,NE,49,2.0,3.0,-999,-99.99,,,-99.99,,2013-04-24 11:53:00,
2013-04-24 08:02:00,57.0,-99.9,30.17,East,82,2.0,2.0,-999,-99.99,,,-99.99,,2013-04-24 12:02:00,
2013-04-24 08:12:00,57.0,-99.9,30.16,ESE,111,3.0,4.0,-999,-99.99,,,-99.99,,2013-04-24 12:12:00,
2013-04-24 08:22:00,58.0,-99.9,30.16,ESE,115,3.0,4.0,-999,-99.99,,,-99.99,,2013-04-24 12:22:00,
2013-04-24 08:32:00,58.0,-99.9,30.17,ESE,107,4.0,4.0,-999,-99.99,,,-99.99,,2013-04-24 12:32:00,
2013-04-24 08:43:00,58.0,-99.9,30.17,ENE,76,3.0,4.0,-999,-99.99,,,-99.99,,2013-04-24 12:43:00,
2013-04-24 08:52:00,58.0,-99.9,30.17,ENE,68,5.0,5.0,-999,-99.99,,,-99.99,,2013-04-24 12:52:00,
2013-04-24 09:01:00,58.0,-99.9,30.18,ENE,65,3.0,4.0,-999,-99.99,,,-99.99,,2013-04-24 13:01:00,
2013-04-24 09:12:00,59.0,-99.9,30.18,NE,55,3.0,3.0,-999,-99.99,,,-99.99,,2013-04-24 13:12:00,
2013-04-24 09:22:00,59.0,-99.9,30.18,ENE,66,2.0,2.0,-999,-99.99,,,-99.99,,2013-04-24 13:22:00,
2013-04-24 09:32:00,59.0,-99.9,30.18,ENE,57,2.0,3.0,-999,-99.99,,,-99.99,,2013-04-24 13:32:00,
2013-04-24 09:42:00,60.0,-99.9,30.18,ENE,78,2.0,2.0,-999,-99.99,,,-99.99,,2013-04-24 13:42:00,
2013-04-24 09:52:00,59.0,-99.9,30.18,East,80,4.0,4.0,-999,-99.99,,,-99.99,,2013-04-24 13:52:00,
2013-04-24 10:01:00,59.0,-99.9,30.18,ENE,66,4.0,5.0,-999,-99.99,,,-99.99,,2013-04-24 14:01:00,
2013-04-24 10:12:00,59.0,-99.9,30.18,East,80,4.0,4.0,-999,-99.99,,,-99.99,,2013-04-24 14:12:00,
2013-04-24 10:22:00,59.0,-99.9,30.18,ENE,78,4.0,5.0,-999,-99.99,,,-99.99,,2013-04-24 14:22:00,
2013-04-24 10:32:00,59.0,-99.9,30.17,East,90,5.0,6.0,-999,-99.99,,,-99.99,,2013-04-24 14:32:00,
2013-04-24 10:42:00,59.0,-99.9,30.17,East,92,5.0,6.0,-999,-99.99,,,-99.99,,2013-04-24 14:42:00,
2013-04-24 10:52:00,59.0,-99.9,30.17,ESE,103,7.0,7.0,-999,-99.99,,,-99.99,,2013-04-24 14:52:00,
2013-04-24 11:01:00,60.0,-99.9,30.16,ESE,110,6.0,7.0,-999,-99.99,,,-99.99,,2013-04-24 15:01:00,
2013-04-24 11:11:00,61.0,-99.9,30.16,ESE,120,5.0,5.0,-999,-99.99,,,-99.99,,2013-04-24 15:11:00,
2013-04-24 11:22:00,61.0,-99.9,30.17,ESE,122,5.0,5.0,-999,-99.99,,,-99.99,,2013-04-24 15:22:00,
2013-04-24 11:33:00,62.0,-99.9,30.16,SE,127,5.0,6.0,-999,-99.99,,,-99.99,,2013-04-24 15:33:00,
2013-04-24 11:43:00,62.0,-99.9,30.16,SE,131,5.0,6.0,-999,-99.99,,,-99.99,,2013-04-24 15:43:00,
2013-04-24 11:53:00,62.0,-99.9,30.17,SE,134,5.0,6.0,-999,-99.99,,,-99.99,,2013-04-24 15:53:00,
2013-04-24 12:03:00,62.0,-99.9,30.16,SE,141,6.0,6.0,-999,-99.99,,,-99.99,,2013-04-24 16:03:00,
2013-04-24 12:12:00,61.0,-99.9,30.16,SE,142,6.0,6.0,-999,-99.99,,,-99.99,,2013-04-24 16:12:00,
2013-04-24 12:23:00,61.0,-99.9,30.16,SSE,151,6.0,7.0,-999,-99.99,,,-99.99,,2013-04-24 16:23:00,
2013-04-24 12:32:00,61.0,-99.9,30.15,SSE,147,7.0,7.0,-999,-99.99,,,-99.99,,2013-04-24 16:32:00,
2013-04-24 12:42:00,61.0,-99.9,30.14,SE,146,8.0,9.0,-999,-99.99,,,-99.99,,2013-04-24 16:42:00,
2013-04-24 12:53:00,61.0,-99.9,30.14,SSE,155,9.0,10.0,-999,-99.99,,,-99.99,,2013-04-24 16:53:00,
2013-04-24 13:02:00,61.0,-99.9,30.13,SSE,150,8.0,9.0,-999,-99.99,,,-99.99,,2013-04-24 17:02:00,
2013-04-24 13:12:00,61.0,-99.9,30.13,SSE,151,8.0,9.0,-999,-99.99,,,-99.99,,2013-04-24 17:12:00,
2013-04-24 13:22:00,61.0,-99.9,30.13,SSE,156,8.0,10.0,-999,-99.99,,,-99.99,,2013-04-24 17:22:00,
2013-04-24 13:32:00,61.0,-99.9,30.13,SSE,158,10.0,11.0,-999,-99.99,,,-99.99,,2013-04-24 17:32:00,
2013-04-24 13:42:00,62.0,-99.9,30.12,SSE,159,10.0,11.0,-999,-99.99,,,-99.99,,2013-04-24 17:42:00,
2013-04-24 13:52:00,62.0,-99.9,30.12,SSE,160,12.0,13.0,-999,-99.99,,,-99.99,,2013-04-24 17:52:00,
2013-04-24 14:02:00,62.0,-99.9,30.12,SSE,165,11.0,13.0,-999,-99.99,,,-99.99,,2013-04-24 18:02:00,
2013-04-24 14:12:00,62.0,-99.9,30.11,SSE,167,12.0,13.0,-999,-99.99,,,-99.99,,2013-04-24 18:12:00,
2013-04-24 14:22:00,63.0,-99.9,30.11,South,180,13.0,14.0,-999,-99.99,,,-99.99,,2013-04-24 18:22:00,
2013-04-24 14:33:00,64.0,-99.9,30.11,South,182,14.0,15.0,-999,-99.99,,,-99.99,,2013-04-24 18:33:00,
2013-04-24 14:43:00,64.0,-99.9,30.11,South,172,16.0,18.0,-999,-99.99,,,-99.99,,2013-04-24 18:43:00,
2013-04-24 14:52:00,64.0,-99.9,30.11,South,171,16.0,18.0,-999,-99.99,,,-99.99,,2013-04-24 18:52:00,
2013-04-24 15:02:00,64.0,-99.9,30.11,South,188,13.0,14.0,-999,-99.99,,,-99.99,,2013-04-24 19:02:00,
2013-04-24 15:12:00,64.0,-99.9,30.11,South,181,15.0,16.0,-999,-99.99,,,-99.99,,2013-04-24 19:12:00,
2013-04-24 15:22:00,64.0,-99.9,30.11,South,183,14.0,15.0,-999,-99.99,,,-99.99,,2013-04-24 19:22:00,
2013-04-24 15:32:00,64.0,-99.9,30.10,South,184,16.0,18.0,-999,-99.99,,,-99.99,,2013-04-24 19:32:00,
2013-04-24 15:42:00,65.0,-99.9,30.10,South,185,17.0,19.0,-999,-99.99,,,-99.99,,2013-04-24 19:42:00,
2013-04-24 15:52:00,65.0,-99.9,30.10,South,186,18.0,21.0,-999,-99.99,,,-99.99,,2013-04-24 19:52:00,
2013-04-24 16:02:00,65.0,-99.9,30.09,South,185,18.0,21.0,-999,-99.99,,,-99.99,,2013-04-24 20:02:00,
2013-04-24 16:11:00,65.0,-99.9,30.09,South,184,20.0,22.0,-999,-99.99,,,-99.99,,2013-04-24 20:11:00,
2013-04-24 16:22:00,65.0,-99.9,30.09,South,184,20.0,22.0,-999,-99.99,,,-99.99,,2013-04-24 20:22:00,
2013-04-24 16:32:00,65.0,-99.9,30.08,South,181,21.0,23.0,-999,-99.99,,,-99.99,,2013-04-24 20:32:00,
2013-04-24 16:42:00,65.0,-99.9,30.08,South,180,21.0,24.0,-999,-99.99,,,-99.99,,2013-04-24 20:42:00,
2013-04-24 16:52:00,65.0,-99.9,30.07,South,183,20.0,23.0,-999,-99.99,,,-99.99,,2013-04-24 20:52:00,
2013-04-24 17:02:00,65.0,-99.9,30.07,South,183,21.0,24.0,-999,-99.99,,,-99.99,,2013-04-24 21:02:00,
2013-04-24 17:12:00,65.0,-99.9,30.07,South,185,21.0,23.0,-999,-99.99,,,-99.99,,2013-04-24 21:12:00,
2013-04-24 17:22:00,65.0,-99.9,30.07,South,184,21.0,23.0,-999,-99.99,,,-99.99,,2013-04-24 21:22:00,
2013-04-24 17:33:00,65.0,-99.9,30.07,South,184,19.0,21.0,-999,-99.99,,,-99.99,,2013-04-24 21:33:00,
2013-04-24 17:43:00,65.0,-99.9,30.07,South,187,18.0,20.0,-999,-99.99,,,-99.99,,2013-04-24 21:43:00,
2013-04-24 17:53:00,65.0,-99.9,30.07,South,185,19.0,22.0,-999,-99.99,,,-99.99,,2013-04-24 21:53:00,
2013-04-24 18:03:00,65.0,-99.9,30.07,South,186,18.0,20.0,-999,-99.99,,,-99.99,,2013-04-24 22:03:00,
2013-04-24 18:12:00,65.0,-99.9,30.07,South,190,16.0,18.0,-999,-99.99,,,-99.99,,2013-04-24 22:12:00,
2013-04-24 18:22:00,65.0,-99.9,30.07,South,189,18.0,20.0,-999,-99.99,,,-99.99,,2013-04-24 22:22:00,
2013-04-24 18:33:00,65.0,-99.9,30.07,South,189,18.0,20.0,-999,-99.99,,,-99.99,,2013-04-24 22:33:00,
2013-04-24 18:42:00,65.0,-99.9,30.06,South,189,18.0,19.0,-999,-99.99,,,-99.99,,2013-04-24 22:42:00,
2013-04-24 18:53:00,65.0,-99.9,30.06,South,188,17.0,19.0,-999,-99.99,,,-99.99,,2013-04-24 22:53:00,
2013-04-24 19:02:00,64.0,-99.9,30.06,South,188,15.0,17.0,-999,-99.99,,,-99.99,,2013-04-24 23:02:00,
2013-04-24 19:12:00,64.0,-99.9,30.06,South,189,16.0,18.0,-999,-99.99,,,-99.99,,2013-04-24 23:12:00,
2013-04-24 19:22:00,64.0,-99.9,30.06,South,190,17.0,18.0,-999,-99.99,,,-99.99,,2013-04-24 23:22:00,
2013-04-24 19:32:00,64.0,-99.9,30.06,SSW,194,16.0,18.0,-999,-99.99,,,-99.99,,2013-04-24 23:32:00,
2013-04-24 19:42:00,64.0,-99.9,30.05,South,190,16.0,17.0,-999,-99.99,,,-99.99,,2013-04-24 23:42:00,
2013-04-24 19:52:00,64.0,-99.9,30.05,SSW,196,14.0,15.0,-999,-99.99,,,-99.99,,2013-04-24 23:52:00,
2013-04-24 20:02:00,63.0,-99.9,30.05,SSW,202,12.0,13.0,-999,-99.99,,,-99.99,,2013-04-25 00:02:00,
2013-04-24 20:12:00,63.0,-99.9,30.06,SSW,208,11.0,11.0,-999,-99.99,,,-99.99,,2013-04-25 00:12:00,
2013-04-24 20:23:00,63.0,-99.9,30.06,SSW,204,11.0,12.0,-999,-99.99,,,-99.99,,2013-04-25 00:23:00,
2013-04-24 20:32:00,63.0,-99.9,30.05,SSW,199,11.0,12.0,-999,-99.99,,,-99.99,,2013-04-25 00:32:00,
2013-04-24 20:42:00,63.0,-99.9,30.05,SSW,203,11.0,13.0,-999,-99.99,,,-99.99,,2013-04-25 00:42:00,
2013-04-24 20:52:00,63.0,-99.9,30.05,SSW,211,11.0,12.0,-999,-99.99,,,-99.99,,2013-04-25 00:52:00,
2013-04-24 21:02:00,63.0,-99.9,30.06,SSW,210,12.0,13.0,-999,-99.99,,,-99.99,,2013-04-25 01:02:00,
2013-04-24 21:12:00,63.0,-99.9,30.06,SSW,212,13.0,14.0,-999,-99.99,,,-99.99,,2013-04-25 01:12:00,
2013-04-24 21:23:00,63.0,-99.9,30.06,SSW,211,13.0,15.0,-999,-99.99,,,-99.99,,2013-04-25 01:23:00,
2013-04-24 21:32:00,63.0,-99.9,30.06,SSW,208,13.0,13.0,-999,-99.99,,,-99.99,,2013-04-25 01:32:00,
2013-04-24 21:42:00,63.0,-99.9,30.06,SSW,207,13.0,13.0,-999,-99.99,,,-99.99,,2013-04-25 01:42:00,
2013-04-24 21:53:00,63.0,-99.9,30.07,SW,215,13.0,13.0,-999,-99.99,,,-99.99,,2013-04-25 01:53:00,
2013-04-24 22:02:00,64.0,-99.9,30.09,SW,214,15.0,17.0,-999,-99.99,,,-99.99,,2013-04-25 02:02:00,
2013-04-24 22:11:00,65.0,-99.9,30.09,SW,223,12.0,14.0,-999,-99.99,,,-99.99,,2013-04-25 02:11:00,
2013-04-24 22:22:00,66.0,-99.9,30.09,SW,215,13.0,16.0,-999,-99.99,,,-99.99,,2013-04-25 02:22:00,
2013-04-24 22:32:00,65.0,-99.9,30.09,SSW,209,14.0,15.0,-999,-99.99,,,-99.99,,2013-04-25 02:32:00,
2013-04-24 22:42:00,65.0,-99.9,30.09,SSW,209,14.0,15.0,-999,-99.99,,,-99.99,,2013-04-25 02:42:00,
2013-04-24 22:52:00,65.0,-99.9,30.09,SSW,209,14.0,15.0,-999,-99.99,,,-99.99,,2013-04-25 02:52:00,
2013-04-24 23:02:00,64.0,-99.9,30.09,SSW,203,11.0,12.0,-999,-99.99,,,-99.99,,2013-04-25 03:02:00,
2013-04-24 23:11:00,64.0,-99.9,30.09,SSW,205,11.0,12.0,-999,-99.99,,,-99.99,,2013-04-25 03:11:00,
2013-04-24 23:22:00,64.0,-99.9,30.09,SSW,208,11.0,12.0,-999,-99.99,,,-99.99,,2013-04-25 03:22:00,
2013-04-24 23:33:00,64.0,-99.9,30.08,SSW,210,11.0,12.0,-999,-99.99,,,-99.99,,2013-04-25 03:33:00,
2013-04-24 23:43:00,65.0,-99.9,30.08,SSW,212,13.0,13.0,-999,-99.99,,,-99.99,,2013-04-25 03:43:00,
2013-04-24 23:52:00,65.0,-99.9,30.08,SW,215,13.0,15.0,-999,-99.99,,,-99.99,,2013-04-25 03:52:00,